EW9927 Weather Reports


Display with metric or nautical units.
time (UTC)temp
F
wind
direction
speed
MPH
gust
MPH
rain 1hr
in
rain 24hr
in
rain mn
in
humidity
%
barometer
mb
20260502170505 74 101 0.0 4.0 0.00 1.66 0.00 56 1019.0
20260502163935 73 139 0.0 10.0 0.00 1.67 0.00 58 1018.6
20260502163435 72 127 0.0 10.0 0.00 1.68 0.00 57 1018.6
20260502162929 72 117 0.0 4.0 0.00 1.68 0.00 60 1018.6
20260502162423 72 79 2.0 6.0 0.00 1.69 0.00 59 1018.6
20260502161914 71 111 1.0 6.0 0.00 1.69 0.00 59 1019.0
20260502161414 72 126 1.0 4.0 0.00 1.75 0.00 59 1018.6
20260502160907 73 73 1.0 4.0 0.00 1.86 0.00 60 1019.0
20260502160400 71 99 0.0 6.0 0.00 1.93 0.00 64 1018.6
20260502152315 68 145 0.0 7.0 0.00 1.94 0.00 69 1018.6
20260502151808 67 89 0.0 7.0 0.00 1.94 0.00 69 1018.6
20260502151307 66 52 0.0 6.0 0.00 1.94 0.00 69 1018.6
20260502150253 65 281 2.0 4.0 0.00 1.94 0.00 70 1018.6
20260502130538 58 93 0.0 2.0 0.00 1.99 0.00 84 1017.3
20260502123454 56 120 0.0 2.0 0.00 2.00 0.00 89 1016.9
20260502122946 55 91 0.0 1.0 0.00 2.00 0.00 90 1016.9
20260502122434 55 97 0.0 2.0 0.00 2.01 0.00 90 1016.9
20260502121929 55 76 0.0 2.0 0.00 2.03 0.00 89 1016.9
20260502121420 55 76 1.0 2.0 0.00 2.03 0.00 89 1016.6
20260502121134 55 83 2.0 2.0 0.00 2.03 0.00 90 1016.6
20260502115855 54 90 1.0 2.0 0.00 2.03 0.00 89 1016.6
20260502115611 55 83 0.0 2.0 0.00 2.03 0.00 91 1016.6
20260502114842 54 108 0.0 0.0 0.00 2.03 0.00 90 1016.6
20260502113834 55 134 0.0 1.0 0.00 2.03 0.00 90 1016.6
20260502113325 54 126 0.0 1.0 0.00 2.03 0.00 90 1016.6
20260502112819 55 123 0.0 0.0 0.00 2.03 0.00 89 1016.3
20260502112317 55 116 0.0 1.0 0.00 2.03 0.00 89 1016.3
20260502112029 55 110 0.0 1.0 0.00 2.03 0.00 88 1016.3
20260502111301 56 115 0.0 4.0 0.00 2.03 0.00 88 1016.3
20260502110756 55 75 1.0 4.0 0.00 2.03 0.00 89 1015.9
20260502110252 55 148 1.0 6.0 0.00 2.03 0.00 88 1015.9
20260502105747 55 51 2.0 6.0 0.00 2.03 0.00 88 1015.9
20260502105506 55 66 0.0 2.0 0.00 2.03 0.00 88 1015.9
20260502104734 55 51 0.0 2.0 0.00 2.03 0.00 88 1015.9
20260502104448 56 103 1.0 2.0 0.00 2.04 0.00 89 1015.9
20260502103727 55 118 1.0 1.0 0.00 2.04 0.00 88 1015.9
20260502103218 55 126 0.0 1.0 0.00 2.04 0.00 88 1015.6
20260502102710 55 94 0.0 3.0 0.00 2.04 0.00 88 1015.6
20260502102213 56 116 0.0 3.0 0.00 2.06 0.00 88 1015.6
20260502101704 55 37 2.0 3.0 0.00 2.06 0.00 87 1015.6
20260502101157 55 129 2.0 2.0 0.00 2.06 0.00 88 1015.6
20260502100652 55 174 0.0 2.0 0.00 2.07 0.00 88 1015.2
20260502100148 55 117 0.0 0.0 0.00 2.07 0.00 88 1015.2
20260502091049 57 80 0.0 2.0 0.00 2.28 0.00 85 1014.6
20260502090543 57 116 0.0 3.0 0.00 2.30 0.00 86 1014.6
20260502071343 56 43 1.0 2.0 0.00 2.32 0.00 90 1014.2
20260502070835 56 82 0.0 2.0 0.00 2.32 0.00 90 1014.2
20260502070328 57 85 0.0 3.0 0.00 2.32 0.00 90 1014.6
20260502070044 56 69 1.0 3.0 0.00 2.32 0.00 89 1014.2
20260502065320 56 52 1.0 3.0 0.00 2.32 0.00 90 1014.6
20260502064813 56 81 1.0 3.0 0.00 2.32 0.00 91 1014.6
20260502064533 56 42 1.0 3.0 0.00 2.32 0.00 91 1014.2
20260502063758 56 148 1.0 3.0 0.00 2.32 0.00 91 1014.2
20260502063252 56 106 0.0 2.0 0.00 2.32 0.00 92 1013.9
20260502062748 56 96 0.0 2.0 0.00 2.32 0.00 92 1013.9
20260502062240 56 155 0.0 2.0 0.00 2.32 0.00 93 1013.9
20260502061740 56 110 0.0 4.0 0.00 2.32 0.00 93 1013.9
20260502061453 56 48 1.0 7.0 0.00 2.32 0.00 93 1013.9
20260502060726 56 88 4.0 7.0 0.00 2.32 0.00 93 1013.9
20260502060219 56 93 0.0 3.0 0.00 2.32 0.00 93 1013.9
20260502055720 56 118 0.0 7.0 0.00 2.32 0.00 93 1013.6
20260502055432 56 77 0.0 7.0 0.00 2.32 0.00 93 1013.9
20260502054930 56 293 1.0 6.0 0.00 2.32 0.00 93 1013.9
20260502054157 56 98 0.0 6.0 0.00 2.32 0.00 93 1013.9
20260502053657 56 58 0.0 6.0 0.00 2.32 0.00 93 1013.9
20260502053150 56 95 2.0 4.0 0.00 2.32 0.00 93 1013.9
20260502052643 57 59 0.0 3.0 0.00 2.32 0.00 94 1013.9
20260502052136 56 41 2.0 8.0 0.00 2.32 0.00 94 1013.9
20260502051636 56 89 2.0 8.0 0.00 2.37 0.00 94 1013.9
20260502051129 57 112 1.0 6.0 0.00 2.37 0.00 94 1013.9
20260502050623 56 87 0.0 4.0 0.00 2.38 0.00 94 1013.6
20260502050115 57 61 1.0 10.0 0.00 2.42 0.00 94 1013.6
20260502045837 56 111 2.0 10.0 0.00 2.42 2.42 94 1013.6
20260502045106 56 69 0.0 2.0 0.00 2.42 2.42 94 1013.6
20260502044559 57 72 1.0 6.0 0.00 2.42 2.42 94 1013.6
20260502044053 56 78 0.0 6.0 0.00 2.42 2.42 94 1013.9
20260502043549 57 127 0.0 2.0 0.00 2.42 2.42 95 1013.9
20260502043036 57 106 0.0 2.0 0.00 2.42 2.42 95 1013.9
20260502042529 57 83 1.0 2.0 0.00 2.42 2.42 95 1013.9
20260502042021 57 102 0.0 2.0 0.00 2.42 2.42 95 1013.9
20260502041514 57 128 0.0 3.0 0.00 2.42 2.42 95 1013.6
20260502041016 57 148 1.0 3.0 0.00 2.42 2.42 95 1013.6
20260502040508 57 69 0.0 3.0 0.02 2.42 2.42 95 1013.6
20260502040002 57 82 0.0 4.0 0.02 2.42 2.42 95 1013.9
20260502035716 57 112 0.0 4.0 0.02 2.42 2.42 95 1013.9
20260502034952 57 99 2.0 4.0 0.02 2.42 2.42 95 1013.9
20260502034445 57 113 0.0 7.0 0.02 2.42 2.42 95 1013.9
20260502033940 58 94 0.0 7.0 0.02 2.42 2.42 95 1013.6
20260502033656 57 109 0.0 2.0 0.02 2.42 2.42 95 1013.6
20260502033156 57 127 0.0 4.0 0.02 2.42 2.42 95 1013.6
20260502032425 57 99 0.0 4.0 0.02 2.42 2.42 95 1013.6
20260502032142 57 30 0.0 3.0 0.03 2.42 2.42 95 1013.2
20260502031411 57 103 1.0 3.0 0.03 2.42 2.42 95 1012.9
20260502030910 57 120 0.0 2.0 0.03 2.42 2.42 95 1013.2
20260502030402 57 286 1.0 4.0 0.03 2.40 2.40 95 1012.5
20260502030115 57 90 0.0 4.0 0.03 2.40 2.40 95 1012.2
20260502025350 57 97 0.0 3.0 0.03 2.40 2.40 95 1012.2
20260502024844 57 118 0.0 3.0 0.03 2.40 2.40 95 1012.2
20260502024337 58 119 1.0 2.0 0.04 2.40 2.40 95 1012.2
20260502023828 58 52 1.0 3.0 0.04 2.40 2.40 95 1012.2
20260502023539 58 81 1.0 3.0 0.05 2.40 2.40 95 1012.2
20260502022820 58 65 1.0 8.0 0.05 2.40 2.40 95 1011.9
20260502022311 58 123 0.0 8.0 0.05 2.40 2.40 95 1011.9
20260502021802 58 100 1.0 3.0 0.05 2.39 2.39 95 1011.9
20260502021255 58 298 1.0 2.0 0.06 2.39 2.39 95 1012.2
20260502021021 59 61 2.0 2.0 0.07 2.37 2.37 95 1012.2
20260502020245 59 61 2.0 4.0 0.07 2.37 2.37 95 1011.9
20260502015739 59 109 0.0 4.0 0.08 2.37 2.37 95 1011.5
20260502015451 59 127 0.0 2.0 0.08 2.37 2.37 95 1011.9
20260502014730 60 85 1.0 3.0 0.07 2.36 2.37 95 1011.9
20260502014221 60 109 0.0 3.0 0.07 2.36 2.36 95 1011.9
20260502013714 59 111 0.0 1.0 0.08 2.36 2.36 95 1011.5
20260502012705 59 100 1.0 2.0 0.08 2.35 2.35 95 1011.2
20260502012420 59 75 0.0 2.0 0.07 2.34 2.35 95 1011.2
20260502011649 59 84 0.0 2.0 0.07 2.34 2.34 95 1010.8
20260502011142 59 125 0.0 0.0 0.06 2.33 2.33 95 1010.8
20260502010641 60 106 0.0 1.0 0.03 2.30 2.30 95 1010.8
20260502010133 60 106 0.0 1.0 0.05 2.30 2.30 95 1010.8
20260502005625 60 116 0.0 4.0 0.04 2.29 2.29 95 1011.5
20260502005118 60 82 1.0 4.0 0.04 2.29 2.29 95 1010.8
20260502004834 60 95 1.0 3.0 0.04 2.29 2.29 95 1010.5
20260502004109 60 103 0.0 1.0 0.05 2.29 2.29 95 1010.2
20260502003600 60 109 0.0 3.0 0.04 2.28 2.28 95 1009.8
20260502003053 60 97 0.0 3.0 0.04 2.28 2.28 95 1009.8
20260502002758 60 102 0.0 2.0 0.03 2.27 2.27 95 1009.8
20260502002034 0 0.0 0.0 0.03 2.27 2.27 1010.2
20260502001530 0 0.0 0.0 0.03 2.27 2.27 1010.2
20260502001024 60 119 0.0 0.0 0.03 2.27 2.27 95 1010.2
20260502000520 60 110 0.0 0.0 0.02 2.26 2.26 95 1010.2
20260502000011 0 0.0 0.0 0.01 2.25 2.25 1009.8
20260501235505 0 0.0 1.0 0.03 2.25 2.25 1010.2
20260501235000 60 68 0.0 1.0 0.03 2.25 2.25 95 1010.5
20260501234724 60 68 0.0 4.0 0.03 2.25 2.25 95 1010.5
20260501233952 60 91 1.0 6.0 0.02 2.24 2.24 95 1009.8
20260501233442 60 95 2.0 6.0 0.02 2.24 2.24 95 1008.8
20260501232934 60 113 0.0 2.0 0.02 2.24 2.24 95 1008.5
20260501232411 0 0.0 0.0 0.02 2.24 2.24 1009.1
20260501231906 0 0.0 0.0 0.02 2.24 2.24 1009.1
20260501231401 0 0.0 4.0 0.02 2.24 2.24 1009.1
20260501231118 61 90 3.0 4.0 0.03 2.24 2.24 95 1009.8
20260501230334 61 90 3.0 4.0 0.03 2.24 2.24 95 1009.5
20260501225826 61 90 3.0 4.0 0.07 2.24 2.24 95 1009.1
20260501225319 61 50 0.0 6.0 0.06 2.22 2.22 95 1009.1
20260501224814 61 285 2.0 6.0 0.06 2.22 2.22 95 1009.1
20260501224312 61 87 1.0 3.0 0.07 2.22 2.22 95 1008.5
20260501223806 61 113 0.0 3.0 0.12 2.22 2.22 95 1008.8
20260501223257 61 81 0.0 4.0 0.12 2.22 2.22 95 1008.8
20260501222750 61 61 0.0 4.0 0.12 2.22 2.22 95 1008.5
20260501222240 62 117 0.0 4.0 0.12 2.22 2.22 95 1008.5
20260501221731 62 74 2.0 2.0 0.13 2.22 2.22 95 1008.5
20260501221224 62 124 1.0 4.0 0.14 2.22 2.22 95 1008.8
20260501220947 62 117 1.0 4.0 0.14 2.21 2.21 95 1008.8
20260501220214 62 62 0.0 1.0 0.14 2.20 2.20 95 1008.8
20260501215708 62 82 0.0 4.0 0.12 2.17 2.17 95 1009.1
20260501215421 62 94 1.0 4.0 0.12 2.16 2.16 96 1009.1
20260501214656 63 153 1.0 2.0 0.13 2.16 2.16 96 1009.1
20260501214152 63 127 0.0 0.0 0.07 2.10 2.10 96 1009.1
20260501213905 63 127 0.0 0.0 0.13 2.10 2.10 96 1009.1
20260501213135 0 0.0 0.0 0.13 2.10 2.10 1009.1
20260501212629 62 123 0.0 1.0 0.13 2.10 2.10 95 1009.5
20260501212349 62 123 0.0 1.0 0.13 2.10 2.10 95 1009.1
20260501211621 62 104 0.0 1.0 0.21 2.09 2.09 95 1009.1
20260501211114 62 125 0.0 4.0 0.20 2.08 2.08 95 1009.1
20260501210605 62 94 0.0 4.0 0.21 2.07 2.07 95 1008.5
20260501210051 62 39 1.0 6.0 0.20 2.06 2.06 95 1008.1
20260501205545 62 58 2.0 8.0 0.19 2.05 2.05 95 1007.8
20260501205038 62 100 0.0 8.0 0.18 2.04 2.04 95 1007.8
20260501204533 62 82 1.0 1.0 0.17 2.03 2.03 96 1007.5
20260501204024 62 82 1.0 1.0 0.17 2.03 2.03 96 1007.5
20260501203517 63 83 0.0 1.0 0.11 1.97 1.97 96 1008.1
20260501203011 0 0.0 0.0 0.12 1.97 1.97 1008.5
20260501202507 63 186 0.0 1.0 0.12 1.97 1.97 95 1008.1
20260501202223 63 186 0.0 1.0 0.14 1.97 1.97 95 1008.5
20260501201459 63 58 0.0 3.0 0.17 1.88 1.88 95 1008.8
20260501195943 63 24 1.0 2.0 0.18 1.86 1.86 96 1007.5
20260501195436 63 110 0.0 6.0 0.18 1.86 1.86 96 1007.5
20260501194928 63 98 0.0 6.0 0.19 1.86 1.86 96 1007.5
20260501194421 63 117 0.0 3.0 0.19 1.86 1.86 96 1007.5
20260501193921 63 109 0.0 3.0 0.25 1.86 1.86 96 1007.1
20260501193413 63 89 1.0 3.0 0.47 1.85 1.86 96 1007.1
20260501192908 64 113 0.0 2.0 0.61 1.85 1.85 96 1007.5
20260501192359 63 77 0.0 3.0 0.61 1.85 1.85 96 1007.1
20260501191857 63 98 1.0 3.0 0.56 1.80 1.81 95 1007.5
20260501190843 63 82 0.0 4.0 0.47 1.68 1.68 96 1008.1
20260501190336 63 64 1.0 4.0 0.59 1.68 1.68 96 1007.8
20260501185838 64 119 0.0 3.0 0.71 1.68 1.68 96 1007.5
20260501185329 64 171 1.0 3.0 0.77 1.68 1.68 96 1007.5
20260501184823 64 66 1.0 3.0 0.77 1.67 1.67 96 1007.8
20260501184318 63 145 0.0 3.0 0.77 1.67 1.67 96 1007.5
20260501183814 63 116 0.0 3.0 0.66 1.55 1.60 95 1007.8
20260501183308 63 116 0.0 0.0 0.53 1.33 1.33 95 1008.5
20260501182801 63 196 0.0 0.0 0.45 1.24 1.24 95 1009.1
20260501181751 63 119 0.0 9.0 0.46 1.24 1.24 95 1006.8
20260501181244 63 119 0.0 9.0 0.47 1.24 1.24 95 1006.4
20260501180956 63 80 0.0 6.0 0.41 1.17 1.19 95 1007.1
20260501180230 63 60 2.0 6.0 0.30 1.06 1.06 95 1007.1
20260501175726 63 121 1.0 3.0 0.15 0.91 0.91 95 1009.1
20260501175218 63 121 1.0 3.0 0.15 0.91 0.91 95 1008.1
20260501174710 63 84 0.0 3.0 0.15 0.90 0.90 95 1008.1
20260501174204 63 30 1.0 4.0 0.15 0.90 0.90 95 1007.8
20260501173703 64 303 3.0 4.0 0.09 0.84 0.86 95 1008.1
20260501173159 64 83 0.0 2.0 0.06 0.80 0.80 95 1009.1